Showing default

LES 1, 1002

Orbit data source: Space-Track

LES 1, 1002 is a payload satellite owned by USAF SSD (US) in LEO that was launched on Thu, 11 Feb 1965 UTC via a TITAN IIIA launch vehicle from the Air Force Eastern Test Range (AFETR). Payload-class satellites include a variety of spacecraft equipped with specific instruments for various scientific and technological missions. These include communications satellites like Starlink; space stations such as the ISS; scientific satellites like the Hubble; Earth observation satellites from companies like Planet Labs, Umbra, and HawkEye 360; GPS; miniature CubeSats for education and research; and military/defense satellites.

Loading next visibility...
Identifier
1002, 1965-008C
Orbit
LEO
Country
Flag of USUS
Related business
Manufacturer
MIT-LL
Mission
Spacecraft
Bus & Motor
LES, STAR 13A
Mass
158 kg wet, 31 kg dry
Launch date (UTC)
1965-02-11 (61 years ago)
Launch vehicle
TITAN IIIA
Launch site
Air Force Eastern Test Range (AFETR)
Object type
Payload
Rocket body
Debris
Shape & HBR
Unknown
Radar Cross Section
Medium (>0.1 m² and <1 m²)

Expand to show TLE details & history
Last TLE update: 1 day ago

TLE from 1 day ago
0 LES 1
1 01002U 65008C   25340.38401402  .00000003  00000-0 -71478-3 0  9992
2 01002  32.1379 141.4480 0015833 295.5299  64.3561  9.88355017197113
Epoch: 2025-12-06T09:12Z
TLE epoch observation values (Epoch: 2025-12-06T09:12:58.811Z)
Latitude
-0.00001°
Longitude
-72.20958°
Altitude
2,786.47 km
Speed
6.599 km/s
True Right ascension
09h 25m 47s
True Declination
0° 00' 00"
Sunlit
Object was in daylight at epoch
Visualization orbit readout
Latitude
Unknown
Longitude
Unknown
Altitude
Unknown
Speed
Unknown
Apparent Right ascension
Unknown
Apparent Declination
Unknown
Sunlit
N/A
Visualization observer readout
Local Sidereal Time
11:41:59
Azimuth
Unknown
Elevation
Unknown
Doppler factor
Unknown
Orbital elements
Apogee altitude
2,811.071 km
Perigee altitude
2,782.018 km
Semi-major axis
9,174.681 km
Eccentricity
0.00158
Inclination
32.1379°
RAAN
141.448°
Arg. of periapsis
295.5299°
True anomaly
64.5198°
Mean anomaly
64.3561°
Eccentric anomaly
64.43794°
Mean motion
2.46977 °/min
Orbital period
145.76 mins
BSTAR
-0.00071478
Loading maneuver chart data...
Computing Atmospheric mass density...
Loading historical data...
Loading historical data...
Loading historical data...
Loading historical data...
Loading historical data...
Loading historical data...
Loading historical data...
Other satellites on launch #8 in the year 1965 (1965-02-11 UTC)

Documentation

Showing up to 5 results
|